Regional Weather Roundup
Issued by NWS

Home | Current Version | Previous Version | Text Only | Print | Product List | Glossary On
Versions: 1 2 3 4 5 6 7 8 9 10 11 12 13 14 15 16 17 18 19 20 21 22 23 24 25 26 27 28 29 30 31 32 33 34 35 36 37 38 39 40 41 42 43 44 45 46 47 48 49 50
000
ASCA42 TJSJ 271511
RWRPR
PUERTO RICO/U.S. VIRGIN ISLANDS HOURLY WEATHER ROUNDUP
NATIONAL WEATHER SERVICE SAN JUAN PR
1100 AM AST SAT DEC 27 2014

PRZ001-004-271600-
PUERTO RICO

CITY           SKY/WX    TMP DP  RH WIND       PRES   REMARKS
SAN JUAN LMM   MOSUNNY   82  68  61 E14       30.12F
AGUADILLA      MOSUNNY   81  66  61 E17G23    30.14S
CEIBA          SUNNY     82  68  61 NE9       30.14S
$$

PRZ006-007-271600-
U.S. VIRGIN ISLANDS

CITY           SKY/WX    TMP DP  RH WIND       PRES   REMARKS
$$

HOURLY WEATHER ROUNDUP FOR THE NEWS MEDIA

CITY           SKY/WX    TMP DP  RH WIND       PRES   REMARKS
MIAMI          PTSUNNY   76  70  82 SE3       30.24R
ORLANDO        PTSUNNY   70  64  81 NE3       30.28R
NEW YORK       PTSUNNY   48  34  58 SW5       30.28S
NEWARK         MOSUNNY   47  34  60 SW3       30.27S
CHICAGO        CLOUDY    47  44  90 S14G22    29.93F
HARTFORD       SUNNY     45  33  63 SW6       30.23R
BOSTON         MOSUNNY   45  30  55 W10       30.22R
DALLAS         CLOUDY    42  34  73 N17G28    30.22R
PHILADELPHIA   MOSUNNY   40  35  83 W6        30.31R



USA.gov is the U.S. government's official web portal to all federal, state and local government web resources and services.